sat.trackr.live / text

‹ back to catalog

STARLINK-34272

NORAD 64274 · 2025-120U

PAYLOAD ACTIVE UNKNOWN

§ Identity

Operator
Country
US
Launch date
2025-06-04
Launch site
AFWTR
Launch vehicle
Mass (kg)
RCS (m²)

Purposes: comms

External: N2YO · Heavens-Above · Gunter

§ Orbital elements

Epoch: 2026-09-20T08:24:53.904096Z

Period
93.85 min
Inclination
53.1590°
Eccentricity
0.0001681
Mean motion
15.34402206 rev/d
Perigee alt
461.5 km
Apogee alt
463.8 km
Semi-major
6,840.8 km
B*
3.7065e-4
RAAN
290.1006°
Arg perigee
84.0176°
Mean anomaly
276.1018°
Rev number
7,365

§ Raw data

STARLINK-342721 64274U 25120U   26263.35062389  .00012168  00000+0  37065-3 0  99992 64274  53.1590 290.1006 0001681  84.0176 276.1018 15.34402206 73651

JSON: /api/v1/satellites/64274 · /tle

For live sub-satellite position, see the globe view (requires WebGL).

§ Visibility from observer

Set your observer location to see the next 7 days of passes ≥ 10°. The values pass through the URL so the page stays shareable.

No JS? Fill the form by hand. The geolocation button needs JavaScript.